Weather History for College Park, MD

Change the Weather History Date:

Monday, January 14, 2013

  Actual Average Record
Temperature  
Mean Temperature 51 °F -  
Max Temperature 60 °F 41 °F 70 °F (1952)
Min Temperature 42 °F 24 °F 8 °F (1962)
Degree Days  
Heating Degree Days 14    
Growing Degree Days 1 (Base 50)    
Moisture  
Dew Point 48 °F    
Average Humidity 84    
Maximum Humidity 100    
Minimum Humidity 53    
Precipitation  
Precipitation 0.00 in - - ()
Sea Level Pressure  
Sea Level Pressure 30.13 in    
Wind  
Wind Speed 2 mph (NNW)    
Max Wind Speed 12 mph    
Max Gust Speed 18 mph    
Visibility 8 miles    
Events      
Averages and records for this station are not official NWS values.
T = Trace of Precipitation, MM = Missing Value Source: NWS Daily Summary

Daily Weather History Graph

Daily Weather History Graph

Search for Another Location

Airport:

Trip Planner

Search our weather history database for the weather conditions in past years. The results will help you decide how hot, cold, wet, or windy it might be!

Date:

Astronomy

Jan. 14, 2013 Rise Set
Actual Time 7:25 AM EST 5:08 PM EST
Civil Twilight 6:55 AM EST 5:38 PM EST
Nautical Twilight 6:23 AM EST 6:11 PM EST
Astronomical Twilight 5:51 AM EST 6:43 PM EST
Moon 8:59 AM EST (1/14) 8:49 PM EST (1/14)
Length of Visible Light 10h 42m
Length of Day
9h 43m
Waxing Crescent, 11% of the Moon is Illuminated
Jan 14
Waxing Crescent
Jan 18
First Quarter
Jan 26
Full
Feb 3
Last Quarter
Feb 10
New

Hourly Weather History & Observations

Time (EST) Temp. Windchill Dew Point Humidity Pressure Visibility Wind Dir Wind Speed Gust Speed Precip Events Conditions
12:10 AM 50.9 °F - 50.9 °F 100% 29.99 in 0.2 mi Calm Calm - N/A   Overcast
12:30 AM 50.5 °F - 50.5 °F 100% 29.99 in 0.2 mi Calm Calm - N/A   Overcast
12:55 AM 50.5 °F - 50.5 °F 100% 29.98 in 0.2 mi Calm Calm - N/A   Overcast
1:15 AM 50.5 °F - 50.5 °F 100% 29.98 in 0.2 mi Calm Calm - N/A   Overcast
1:35 AM 50.2 °F - 50.2 °F 100% 29.99 in 0.2 mi Calm Calm - N/A   Overcast
1:55 AM 50.0 °F - 50.0 °F 100% 29.99 in 0.5 mi Calm Calm - N/A   Overcast
2:20 AM 50.0 °F - 50.0 °F 100% 29.99 in 0.5 mi Calm Calm - N/A   Overcast
2:40 AM 50.2 °F - 50.2 °F 100% 30.00 in 1.8 mi Calm Calm - N/A   Overcast
3:20 AM 50.0 °F - 50.0 °F 100% 29.99 in 5.0 mi Calm Calm - N/A   Clear
3:45 AM 50.2 °F - 50.2 °F 100% 29.97 in 4.0 mi Calm Calm - N/A   Clear
4:05 AM 50.4 °F - 50.4 °F 100% 29.97 in 5.0 mi Calm Calm - N/A   Scattered Clouds
4:25 AM 50.9 °F - 50.9 °F 100% 29.95 in 5.0 mi Calm Calm - N/A   Overcast
4:45 AM 52.7 °F - 52.7 °F 100% 29.98 in 5.0 mi West 3.5 mph - N/A   Overcast
5:30 AM 58.1 °F - 58.1 °F 100% 29.98 in 7.0 mi Calm Calm - N/A   Mostly Cloudy
5:50 AM 59.4 °F - 59.4 °F 100% 29.98 in 10.0 mi Calm Calm - N/A   Scattered Clouds
6:10 AM 60.1 °F - 60.1 °F 100% 29.99 in 10.0 mi Calm Calm - N/A   Clear
6:35 AM 60.8 °F - 60.8 °F 100% 30.00 in 10.0 mi Calm Calm - N/A   Scattered Clouds
6:55 AM 60.3 °F - 60.3 °F 100% 30.02 in 10.0 mi Calm Calm - N/A   Scattered Clouds
7:15 AM 57.6 °F - 57.6 °F 100% 30.02 in 5.0 mi Calm Calm - N/A   Clear
7:35 AM 55.9 °F - 55.9 °F 100% 30.04 in 5.0 mi Calm Calm - N/A   Scattered Clouds
8:00 AM 56.3 °F - 56.3 °F 100% 30.06 in 2.0 mi Calm Calm - N/A   Scattered Clouds
8:20 AM 58.3 °F - 58.3 °F 100% 30.08 in 2.5 mi Calm Calm - N/A   Scattered Clouds
8:40 AM 58.3 °F - 58.3 °F 100% 30.10 in 5.0 mi West 6.9 mph - N/A   Overcast
9:00 AM 59.9 °F - 59.9 °F 100% 30.11 in 10.0 mi NW 11.5 mph 17.3 mph N/A   Mostly Cloudy
9:25 AM 60.4 °F - 56.5 °F 87% 30.13 in 10.0 mi WNW 6.9 mph - N/A   Mostly Cloudy
9:40 AM 60.4 °F - 55.2 °F 83% 30.14 in 10.0 mi NW 5.8 mph - N/A   Mostly Cloudy
10:00 AM 60.4 °F - 54.5 °F 81% 30.14 in 10.0 mi WNW 5.8 mph - N/A   Mostly Cloudy
10:25 AM 60.3 °F - 53.6 °F 79% 30.16 in 10.0 mi NW 8.1 mph - N/A   Overcast
10:50 AM 60.1 °F - 52.2 °F 75% 30.17 in 10.0 mi WNW 5.8 mph - N/A   Overcast
11:10 AM 59.5 °F - 49.1 °F 68% 30.16 in 10.0 mi WNW 5.8 mph - N/A   Overcast
11:30 AM 59.0 °F - 46.4 °F 63% 30.16 in 10.0 mi NW 5.8 mph - N/A   Overcast
12:15 PM 58.3 °F - 45.9 °F 63% 30.15 in 10.0 mi NW 3.5 mph - N/A   Overcast
12:35 PM 58.1 °F - 45.9 °F 64% 30.14 in 10.0 mi NNW 5.8 mph - N/A   Overcast
12:55 PM 57.7 °F - 45.5 °F 64% 30.14 in 10.0 mi NW 6.9 mph - N/A   Overcast
1:05 PM 57.7 °F - 45.1 °F 63% 30.15 in 10.0 mi NW 6.9 mph - N/A   Overcast
1:40 PM 57.0 °F - 43.7 °F 61% 30.16 in 10.0 mi NW 9.2 mph - N/A   Overcast
2:00 PM 55.9 °F - 43.3 °F 63% 30.15 in 10.0 mi North 8.1 mph - N/A   Overcast
3:05 PM 55.4 °F - 43.2 °F 63% 30.17 in 10.0 mi NNE 4.6 mph - N/A   Overcast
3:25 PM 54.9 °F - 43.7 °F 66% 30.19 in 10.0 mi North 5.8 mph - N/A   Overcast
3:45 PM 54.9 °F - 42.4 °F 63% 30.21 in 10.0 mi NW 6.9 mph - N/A   Overcast
4:05 PM 52.7 °F - 46.2 °F 79% 30.21 in 10.0 mi Calm Calm - N/A   Overcast
4:30 PM 52.5 °F - 46.6 °F 80% 30.19 in 10.0 mi Calm Calm - N/A   Overcast
4:50 PM 52.3 °F - 46.4 °F 80% 30.19 in 10.0 mi Calm Calm - N/A   Overcast
5:30 PM 52.7 °F - 46.8 °F 80% 30.22 in 10.0 mi Calm Calm - N/A   Overcast
5:55 PM 51.8 °F - 46.4 °F 82% 30.23 in 10.0 mi Calm Calm - N/A   Overcast
6:55 PM 52.9 °F - 42.4 °F 68% 30.25 in 10.0 mi NNW 3.5 mph - N/A   Overcast
7:20 PM 53.1 °F - 41.7 °F 65% 30.27 in 10.0 mi North 8.1 mph - N/A   Overcast
7:40 PM 52.7 °F - 38.1 °F 58% 30.27 in 10.0 mi North 6.9 mph - N/A   Overcast
8:00 PM 52.3 °F - 35.6 °F 53% 30.28 in 10.0 mi NNW 4.6 mph - N/A   Overcast
8:20 PM 52.0 °F - 36.1 °F 55% 30.29 in 10.0 mi NNW 10.4 mph 16.1 mph N/A   Overcast
8:45 PM 49.8 °F - 35.2 °F 57% 30.29 in 10.0 mi NNW 8.1 mph - N/A   Overcast
9:05 PM 48.0 °F - 35.6 °F 62% 30.29 in 10.0 mi NNW 10.4 mph 18.4 mph N/A   Overcast
9:45 PM 45.5 °F 43.2 °F 40.3 °F 82% 30.29 in 10.0 mi North 4.6 mph - N/A   Overcast
10:10 PM 44.6 °F 41.4 °F 40.1 °F 84% 30.29 in 10.0 mi North 5.8 mph - N/A   Overcast
10:30 PM 44.4 °F 41.2 °F 39.9 °F 84% 30.31 in 10.0 mi NNW 5.8 mph - N/A   Overcast
10:50 PM 43.7 °F 41.1 °F 40.3 °F 88% 30.31 in 7.0 mi NNW 4.6 mph - N/A   Overcast
11:10 PM 43.7 °F 40.3 °F 40.8 °F 90% 30.31 in 10.0 mi NNW 5.8 mph - N/A   Overcast
11:35 PM 42.8 °F 37.5 °F 40.1 °F 90% 30.30 in 10.0 mi NNW 9.2 mph - N/A   Overcast
11:55 PM 42.6 °F 38.4 °F 39.4 °F 88% 30.30 in 10.0 mi NNW 6.9 mph - N/A   Overcast